TimeEST,TemperatureF,Dew PointF,Humidity,Sea Level PressureIn,VisibilityMPH,Wind Direction,Wind SpeedMPH,Gust SpeedMPH,PrecipitationIn,Events,Conditions,WindDirDegrees,DateUTC
12:54 AM,46.9,43.0,86,30.08,7.0,Calm,Calm,-,N/A,,Overcast,0,2012-12-04 05:54:00
1:54 AM,48.9,46.0,90,30.06,8.0,SSW,3.5,-,N/A,,Overcast,200,2012-12-04 06:54:00
2:54 AM,55.9,52.0,87,30.06,8.0,SSW,6.9,-,N/A,,Mostly Cloudy,200,2012-12-04 07:54:00
3:54 AM,57.9,53.1,84,30.04,10.0,SSW,11.5,19.6,N/A,,Mostly Cloudy,210,2012-12-04 08:54:00
4:54 AM,57.9,53.1,84,30.03,10.0,SSW,11.5,-,N/A,,Mostly Cloudy,200,2012-12-04 09:54:00
5:54 AM,59.0,53.1,81,30.01,10.0,SSW,10.4,-,N/A,,Mostly Cloudy,200,2012-12-04 10:54:00
6:54 AM,60.1,53.1,78,30.01,10.0,SSW,13.8,20.7,N/A,,Mostly Cloudy,210,2012-12-04 11:54:00
7:54 AM,60.1,53.1,78,30.01,10.0,SSW,13.8,-,N/A,,Mostly Cloudy,210,2012-12-04 12:54:00
8:54 AM,62.1,52.0,70,30.01,10.0,SSW,13.8,21.9,N/A,,Mostly Cloudy,210,2012-12-04 13:54:00
9:54 AM,63.0,52.0,67,30.00,10.0,SSW,16.1,-,N/A,,Mostly Cloudy,200,2012-12-04 14:54:00
10:54 AM,66.0,52.0,60,29.98,10.0,SSW,20.7,28.8,N/A,,Mostly Cloudy,200,2012-12-04 15:54:00
11:54 AM,66.9,50.0,54,29.95,10.0,SSW,16.1,23.0,N/A,,Mostly Cloudy,210,2012-12-04 16:54:00
12:54 PM,69.8,50.0,49,29.90,10.0,SSW,13.8,20.7,N/A,,Mostly Cloudy,200,2012-12-04 17:54:00
1:54 PM,69.1,50.0,51,29.89,10.0,SSW,15.0,23.0,N/A,,Overcast,210,2012-12-04 18:54:00
2:54 PM,64.0,53.1,67,29.88,10.0,WSW,9.2,-,0.00,Rain,Light Rain,240,2012-12-04 19:54:00
3:54 PM,63.0,54.0,72,29.88,10.0,West,9.2,-,0.00,,Overcast,280,2012-12-04 20:54:00
4:48 PM,59.0,55.4,88,29.90,2.0,West,9.2,-,0.06,Rain,Rain,280,2012-12-04 21:48:00
4:54 PM,59.0,55.9,90,29.90,3.0,West,8.1,-,0.08,Rain,Heavy Rain,270,2012-12-04 21:54:00
5:14 PM,57.2,55.4,94,29.90,7.0,West,8.1,-,0.03,Rain,Light Rain,270,2012-12-04 22:14:00
5:54 PM,57.0,54.0,89,29.91,7.0,WNW,16.1,21.9,0.03,Rain,Light Rain,290,2012-12-04 22:54:00
6:19 PM,55.4,51.8,88,29.92,10.0,West,12.7,-,N/A,Rain,Light Rain,280,2012-12-04 23:19:00
6:54 PM,54.0,48.9,83,29.93,10.0,West,4.6,-,0.05,Rain,Light Rain,280,2012-12-04 23:54:00
7:54 PM,52.0,50.0,93,29.94,10.0,SW,6.9,-,0.09,Rain,Light Rain,220,2012-12-05 00:54:00
8:54 PM,51.1,48.0,89,29.95,9.0,WSW,12.7,-,0.02,Rain,Light Rain,240,2012-12-05 01:54:00
9:54 PM,50.0,46.0,86,29.95,10.0,WSW,10.4,-,0.03,Rain,Light Rain,240,2012-12-05 02:54:00
10:54 PM,48.9,42.1,77,29.94,10.0,SW,10.4,-,0.02,,Overcast,230,2012-12-05 03:54:00
11:54 PM,48.0,41.0,77,29.96,10.0,WSW,13.8,-,N/A,,Mostly Cloudy,250,2012-12-05 04:54:00